Simultaneous Nadir Overpasses (SNOs) Predictions

Prediction of SNOs over PacNW region [( 10.00, 139.50) to ( 22.70, 165.60)] between NOAA-19 and NPP Satellites:

Table of predicted SNOs over PacNW region for the next 30.0 days since TLE Epoch: 5/17/2014
Index Date (NOAA-19) Time (NOAA-19) NOAA-19 Lat,Lon Date (NPP) Time (NPP) NPP Lat,Lon Distance(km) Time Diff (sec)
1 05/21/2014 15:25:32 18.87, 159.25 05/21/2014 15:24:27 19.79, 154.69 488.83 65
2 06/03/2014 03:49:46 18.14, 147.32 06/03/2014 03:51:04 16.93, 142.26 552.61 78
3 06/03/2014 16:26:12 13.09, 143.24 06/03/2014 16:23:28 14.00, 139.05 464.57 164




NCC Satellite Simultaneous Nadir Overpasses (SNOs) Prediction Service
